sat.trackr.live / text

‹ back to catalog

STARLINK-37060

NORAD 68150 · 2026-049J

PAYLOAD ACTIVE UNKNOWN

§ Identity

Operator
Country
US
Launch date
2026-03-13
Launch site
AFWTR
Launch vehicle
Mass (kg)
RCS (m²)

Purposes: comms

External: N2YO · Heavens-Above · Gunter

§ Orbital elements

Epoch: 2026-05-25T01:29:48.668640Z

Period
93.91 min
Inclination
97.2840°
Eccentricity
0.0001535
Mean motion
15.33444589 rev/d
Perigee alt
464.5 km
Apogee alt
466.6 km
Semi-major
6,843.7 km
B*
4.2188e-4
RAAN
166.7519°
Arg perigee
100.7418°
Mean anomaly
259.3997°
Rev number
1,135

§ Raw data

STARLINK-370601 68150U 26049J   26145.06236885  .00013569  00000+0  42188-3 0  99962 68150  97.2840 166.7519 0001535 100.7418 259.3997 15.33444589 11352

JSON: /api/v1/satellites/68150 · /tle

For live sub-satellite position, see the globe view (requires WebGL).

§ Visibility from observer

Set your observer location to see the next 7 days of passes ≥ 10°. The values pass through the URL so the page stays shareable.

No JS? Fill the form by hand. The geolocation button needs JavaScript.